User: anonymous   Login
Location: Vancouver
(49.2500°N, 123.1330°W)
Time: 12:10:55
(UTC-08:00)
Language:

Cosmos 676 Rocket - Orbit

View from above orbital plane
View from above orbital plane
View from above satellite
View from above satellite

Ground track
Ground track

The orbit data is extracted from the following two-line orbital elements,

1 07434U 74071B   17059.59284469  .00000007  00000-0  11340-4 0  9996
2 07434  74.0460  53.4523 0020944 347.1981  12.8637 14.36619444221111
Epoch (UTC): 28 February 2017 14:13:41
Eccentricity: 0.0020944
inclination: 74.0460°
perigee height: 755 km
apogee height: 784 km
right ascension of ascending node: 53.4523°
argument of perigee: 347.1981°
revolutions per day: 14.36619444
mean anomaly at epoch: 12.8637°
orbit number at epoch: 22111

The dashed part of the orbit path shows where the satellite is in the earth's shadow,  

DLR